Date_and_time,latitude,longitude,wind_speed,RelWindDirFrom,WindDirFrom,air_pressure,air_temperature,relative_humidity,Temp,platform_speed_wrt_ground,air_pressure_at_mean_sea_level,platform_orientation
2019-10-30 00:00,50.630435,-96.9807583333333,5.4,7.2,222,990.58,-5.6,87,3.67,0.0,1019.09,90.0
2019-10-30 00:10,50.630435,-96.9807616666667,5.7,7.7,222,990.72,-5.6,85,3.68,0.0,1019.23,90.0
2019-10-30 00:20,50.630435,-96.9807633333333,5.8,7.6,227,990.81,-5.5,86,3.69,0.0,1019.32,90.0
2019-10-30 00:30,50.63045,-96.9807766666667,5.9,7.6,227,990.90,-5.5,84,3.71,0.0,1019.42,90.0
2019-10-30 00:40,50.6304283333333,-96.9807716666667,5.7,8.1,230,990.94,-5.5,84,3.67,0.0,1019.46,90.0
2019-10-30 00:50,50.6304283333333,-96.9807716666667,5.2,8.2,235,991.02,-5.5,83,3.61,0.0,1019.56,90.0
2019-10-30 01:00,50.6304366666667,-96.9807666666667,5.0,7.1,236,991.07,-5.7,81,3.60,0.0,1019.62,270.0
2019-10-30 01:10,50.6304383333333,-96.980765,5.2,7.9,238,991.12,-5.8,80,3.59,0.0,1019.68,270.0
2019-10-30 01:20,50.6304366666667,-96.9807666666667,4.4,6.2,240,991.17,-6.1,79,3.59,0.0,1019.74,270.0
2019-10-30 01:30,50.6304383333333,-96.980765,4.5,5.7,233,991.25,-6.3,80,3.59,0.0,1019.84,270.0
2019-10-30 01:40,50.6304366666667,-96.9807633333333,5.0,6.4,224,991.28,-6.4,83,3.59,0.0,1019.88,270.0
2019-10-30 01:50,50.6304366666667,-96.9807633333333,5.5,7.1,222,991.34,-6.5,84,3.59,0.0,1019.95,270.0
2019-10-30 02:00,50.6304366666667,-96.9807633333333,5.7,7.4,224,991.36,-6.6,85,3.60,0.0,1019.97,270.0
2019-10-30 02:10,50.630435,-96.9807633333333,5.8,7.9,221,991.38,-6.8,86,3.60,0.0,1019.99,270.0
2019-10-30 02:20,50.6304333333333,-96.9807633333333,5.4,7.4,227,991.44,-7.0,87,3.60,0.0,1020.07,270.0
2019-10-30 02:30,50.6304183333333,-96.98079,5.1,6.7,229,991.51,-7.1,87,3.61,0.0,1020.15,270.0
2019-10-30 02:40,50.6304316666667,-96.9807716666667,4.9,6.4,224,991.61,-7.2,87,3.60,0.0,1020.26,270.0
2019-10-30 02:50,50.6304316666667,-96.9807366666667,5.6,7.2,218,991.62,-7.4,87,3.54,0.0,1020.28,270.0
2019-10-30 03:00,50.6304316666667,-96.9807733333333,5.4,7.0,226,991.68,-7.4,88,3.53,0.0,1020.36,240.8
2019-10-30 03:10,50.63043,-96.980765,5.4,7.0,226,991.74,-7.6,87,3.51,0.0,1020.45,240.8
2019-10-30 03:20,50.63043,-96.980765,5.4,6.9,223,991.80,-7.6,88,3.53,0.0,1020.51,240.8
2019-10-30 03:30,50.6304316666667,-96.9807633333333,5.2,7.0,226,991.89,-7.5,88,3.54,0.0,1020.61,240.8
2019-10-30 03:40,50.6304316666667,-96.9807633333333,5.0,6.6,229,992.00,-7.7,88,3.52,0.0,1020.73,240.8
2019-10-30 03:50,50.6304333333333,-96.9807616666667,5.1,7.5,226,992.09,-7.7,89,3.53,0.0,1020.83,240.8
2019-10-30 04:00,50.630435,-96.9807633333333,5.6,7.1,224,992.20,-7.9,90,3.55,0.0,1020.97,0.0
2019-10-30 04:10,50.6304366666667,-96.980735,5.1,6.9,225,992.25,-8.0,92,3.57,0.0,1021.03,0.0
2019-10-30 04:20,50.6304333333333,-96.9807666666667,5.4,7.3,226,992.30,-8.0,92,3.57,0.0,1021.10,0.0
2019-10-30 04:30,50.6304366666667,-96.980765,6.0,7.4,225,992.34,-7.9,92,3.55,0.0,1021.14,0.0
2019-10-30 04:40,50.6304383333333,-96.980765,5.6,7.2,226,992.43,-7.8,92,3.51,0.0,1021.23,0.0
2019-10-30 04:50,50.6304383333333,-96.9807633333333,5.2,7.6,226,992.48,-7.6,92,3.48,0.0,1021.27,0.0
2019-10-30 05:00,50.6304383333333,-96.980765,5.7,7.5,223,992.55,-7.5,92,3.46,0.0,1021.35,360.0
2019-10-30 05:10,50.6304383333333,-96.9807683333333,5.3,7.1,221,992.59,-7.4,93,3.43,0.0,1021.39,360.0
2019-10-30 05:20,50.63044,-96.9807666666667,6.1,7.9,214,992.62,-7.3,92,3.36,0.0,1021.42,360.0
2019-10-30 05:30,50.6304383333333,-96.9807666666667,6.6,8.6,207,992.64,-7.1,91,3.32,0.0,1021.43,360.0
2019-10-30 05:40,50.63044,-96.98077,6.7,8.3,208,992.64,-6.9,91,3.30,0.0,1021.42,360.0
2019-10-30 05:50,50.6304333333333,-96.9807733333333,6.5,8.6,219,992.67,-6.7,91,3.30,0.0,1021.44,360.0
2019-10-30 06:00,50.630435,-96.9807716666667,6.0,8.1,219,992.67,-6.4,91,3.28,0.0,1021.43,38.0
2019-10-30 06:10,50.630435,-96.9807716666667,6.1,7.9,215,992.68,-6.4,91,3.26,0.0,1021.45,38.0
2019-10-30 06:20,50.6304333333333,-96.9807716666667,5.9,7.6,216,992.68,-6.5,91,3.24,0.0,1021.45,38.0
2019-10-30 06:30,50.6304316666667,-96.9807866666667,6.0,7.5,214,992.72,-6.5,92,3.26,0.0,1021.48,38.0
2019-10-30 06:40,50.630435,-96.980775,5.6,7.7,216,992.79,-6.5,92,3.27,0.0,1021.54,38.0
2019-10-30 06:50,50.63044,-96.9807666666667,5.4,7.6,218,992.87,-6.6,93,3.27,0.0,1021.62,38.0
2019-10-30 07:00,50.63044,-96.980765,5.3,7.1,220,992.85,-6.6,93,3.27,0.0,1021.60,360.0
2019-10-30 07:10,50.63044,-96.9807633333333,5.7,7.5,223,992.91,-6.7,93,3.25,0.0,1021.67,360.0
2019-10-30 07:20,50.630445,-96.9807666666667,5.4,7.5,228,992.97,-6.9,92,3.25,0.0,1021.72,360.0
2019-10-30 07:30,50.6304366666667,-96.9807583333333,5.6,8.3,228,993.01,-6.8,91,3.26,0.0,1021.75,360.0
2019-10-30 07:40,50.6304383333333,-96.980765,6.0,9.2,237,993.03,-6.6,88,3.24,0.0,1021.74,360.0
2019-10-30 07:50,50.6304366666667,-96.9807666666667,6.4,8.1,238,993.05,-6.5,86,3.25,0.0,1021.75,360.0
2019-10-30 08:00,50.6304366666667,-96.9807633333333,5.9,8.0,242,993.10,-6.4,86,3.25,0.0,1021.79,360.0
2019-10-30 08:10,50.6304366666667,-96.98076,5.5,7.5,235,993.12,-6.3,86,3.24,0.0,1021.81,360.0
2019-10-30 08:20,50.6304383333333,-96.98076,5.2,7.5,238,993.13,-6.2,86,3.22,0.0,1021.82,360.0
2019-10-30 08:30,50.6304383333333,-96.9807616666667,5.2,7.4,233,993.15,-6.1,86,3.22,0.0,1021.83,360.0
2019-10-30 08:40,50.6304383333333,-96.9807616666667,5.4,7.2,231,993.12,-6.0,85,3.19,0.0,1021.80,360.0
2019-10-30 08:50,50.6304383333333,-96.9807616666667,5.3,7.2,231,993.13,-6.0,85,3.17,0.0,1021.81,360.0
2019-10-30 09:00,50.6304383333333,-96.9807633333333,5.1,7.9,231,993.09,-5.9,85,3.15,0.0,1021.78,12.6
2019-10-30 09:10,50.630425,-96.980765,5.4,7.8,230,993.09,-5.9,83,3.16,0.0,1021.78,12.6
2019-10-30 09:20,50.6304166666667,-96.9807566666667,5.5,7.3,226,993.09,-5.9,83,3.18,0.0,1021.78,12.6
2019-10-30 09:30,50.6304283333333,-96.9807566666667,5.6,8.3,226,993.13,-5.8,83,3.18,0.0,1021.81,12.6
2019-10-30 09:40,50.6304366666667,-96.9807733333333,5.8,8.5,226,993.13,-5.8,83,3.18,0.0,1021.80,12.6
2019-10-30 09:50,50.6304333333333,-96.9807783333333,5.4,7.2,222,993.19,-5.8,83,3.17,0.0,1021.86,12.6
2019-10-30 10:00,50.630435,-96.980775,5.0,6.5,222,993.26,-5.8,84,3.15,0.0,1021.92,192.6
2019-10-30 10:10,50.6304366666667,-96.98077,4.7,7.1,222,993.32,-5.8,85,3.12,0.0,1021.98,192.6
2019-10-30 10:20,50.630435,-96.9807666666667,5.2,8.5,224,993.41,-5.8,86,3.11,0.0,1022.06,192.6
2019-10-30 10:30,50.6304366666667,-96.980765,5.5,7.8,227,993.45,-5.7,86,3.08,0.0,1022.09,192.6
2019-10-30 10:40,50.6304383333333,-96.980765,4.8,7.0,235,993.51,-5.7,84,3.06,0.0,1022.16,192.6
2019-10-30 10:50,50.6304366666667,-96.9807666666667,4.8,6.9,240,993.56,-5.8,83,3.07,0.0,1022.20,192.6
2019-10-30 11:00,50.630435,-96.9807683333333,4.4,6.7,252,993.63,-5.8,82,3.07,0.0,1022.28,0.0
2019-10-30 11:10,50.630425,-96.980765,5.0,7.6,245,993.72,-5.9,81,3.06,0.0,1022.37,0.0
2019-10-30 11:20,50.6304216666667,-96.980765,4.8,7.7,248,993.77,-5.9,81,3.06,0.0,1022.43,0.0
2019-10-30 11:30,50.630435,-96.980775,4.4,6.4,237,993.81,-6.0,81,3.04,0.0,1022.47,0.0
2019-10-30 11:40,50.63043,-96.9807716666667,5.1,7.4,240,993.85,-5.9,80,3.02,0.0,1022.50,0.0
2019-10-30 11:50,50.6304333333333,-96.98078,4.5,6.6,245,993.86,-5.9,79,3.00,0.0,1022.51,0.0
2019-10-30 12:00,50.6304483333333,-96.9807816666667,4.4,6.8,241,993.84,-5.9,80,2.97,0.0,1022.50,291.5
2019-10-30 12:10,50.6286616666667,-96.9812383333333,4.9,8.4,237,993.83,-5.7,80,2.95,0.7,1022.47,291.5
2019-10-30 12:20,50.6260583333333,-96.9397733333333,3.5,8.3,162,993.91,-5.2,83,3.37,9.5,1022.52,291.5
2019-10-30 12:30,50.63129,-96.897575,1.7,13.4,319,993.90,-5.0,80,3.88,9.8,1022.50,291.5
2019-10-30 12:40,50.659645,-96.87827,10.9,14.2,315,993.86,-5.0,79,4.14,11.1,1022.46,291.5
2019-10-30 12:50,50.6880016666667,-96.8597,11.2,13.7,313,993.82,-4.9,80,4.22,11.1,1022.42,291.5
2019-10-30 13:00,50.7161816666667,-96.840415,12.1,14.8,317,993.76,-4.8,81,4.54,11.1,1022.35,46.0
2019-10-30 13:10,50.7448366666667,-96.82252,13.0,16.1,313,993.74,-4.4,78,4.60,11.1,1022.32,46.0
2019-10-30 13:20,50.773455,-96.8043166666667,12.2,16.4,315,993.74,-4.2,75,4.71,11.1,1022.31,46.0
2019-10-30 13:30,50.80189,-96.7858316666667,12.9,16.1,317,993.80,-4.2,75,4.73,11.1,1022.36,46.0
2019-10-30 13:40,50.8304466666667,-96.7677866666667,13.3,16.3,317,993.81,-4.2,77,4.81,11.1,1022.37,46.0
2019-10-30 13:50,50.8568233333333,-96.7429816666667,11.7,14.8,317,993.87,-4.3,77,4.73,11.0,1022.45,46.0
2019-10-30 14:00,50.8833466666667,-96.7184533333333,11.5,14.7,312,993.93,-4.2,78,4.57,11.1,1022.49,33.2
2019-10-30 14:10,50.9102366666667,-96.6948133333333,12.3,16.8,311,993.93,-4.1,77,4.45,11.1,1022.45,33.2
2019-10-30 14:20,50.9369966666667,-96.6707966666667,14.1,17.7,317,993.95,-4.1,77,4.38,11.1,1022.46,33.2
2019-10-30 14:30,50.96668,-96.6604133333333,16.1,19.8,310,993.91,-4.0,74,4.16,10.9,1022.42,33.2
2019-10-30 14:40,50.99702,-96.6537933333333,18.5,22.7,315,993.74,-4.1,70,4.48,11.0,1022.25,33.2
2019-10-30 14:50,51.027385,-96.646035,17.4,21.9,320,993.77,-4.2,69,4.58,11.1,1022.28,33.2
2019-10-30 15:00,51.0577933333333,-96.6390533333333,16.0,20.8,325,993.64,-4.3,70,4.77,11.1,1022.13,26.7
2019-10-30 15:10,51.0881833333333,-96.6313266666667,15.8,20.6,322,993.74,-4.3,69,4.94,11.1,1022.22,26.7
2019-10-30 15:20,51.1186766666667,-96.623885,14.4,17.8,315,993.88,-4.3,72,4.81,11.1,1022.36,26.7
2019-10-30 15:30,51.1494233333333,-96.6171083333333,13.5,17.3,313,993.84,-4.3,74,4.84,11.2,1022.32,26.7
2019-10-30 15:40,51.17986,-96.6037816666667,12.4,16.4,326,993.74,-4.2,74,4.85,11.4,1022.22,26.7
2019-10-30 15:50,51.2098916666667,-96.6008716666667,11.6,18.8,312,993.58,-4.1,74,4.82,10.8,1022.05,26.7
2019-10-30 16:00,51.2380166666667,-96.6194716666667,17.7,25.2,298,993.13,-4.0,77,4.56,11.0,1021.57,14.8
2019-10-30 16:10,51.267355,-96.63115,17.1,22.4,302,993.17,-3.9,77,4.59,10.9,1021.60,14.8
2019-10-30 16:20,51.296255,-96.613855,10.7,14.6,315,993.71,-3.8,78,4.83,11.1,1022.15,14.8
2019-10-30 16:30,51.3255366666667,-96.59758,11.6,16.3,309,993.73,-3.8,79,4.89,11.2,1022.17,14.8
2019-10-30 16:40,51.35477,-96.590215,12.7,22.0,301,993.61,-3.8,79,4.83,10.7,1022.06,14.8
2019-10-30 16:50,51.3840916666667,-96.6040933333333,18.8,23.5,299,993.09,-3.6,79,4.75,11.0,1021.51,14.8
2019-10-30 17:00,51.4132766666667,-96.6181066666667,17.2,21.0,292,993.36,-3.6,80,4.76,11.0,1021.79,6.7
2019-10-30 17:10,51.44237,-96.6324383333333,17.5,24.4,294,993.24,-3.5,82,4.63,11.0,1021.66,6.7
2019-10-30 17:20,51.4713783333333,-96.6479216666667,17.7,21.5,297,993.10,-3.5,81,4.59,11.0,1021.52,6.7
2019-10-30 17:30,51.5009816666667,-96.6623933333333,16.9,21.1,294,993.27,-3.4,82,4.57,11.1,1021.69,6.7
2019-10-30 17:40,51.5307916666667,-96.6775916666667,17.5,21.1,291,993.31,-3.3,80,4.58,11.3,1021.72,6.7
2019-10-30 17:50,51.56045,-96.6925783333333,16.9,20.0,295,993.07,-3.1,78,4.64,11.2,1021.45,6.7
2019-10-30 18:00,51.5901116666667,-96.706195,16.7,20.2,293,993.05,-2.9,76,4.78,11.1,1021.41,355.5
2019-10-30 18:10,51.6188516666667,-96.7237483333333,15.7,19.6,294,992.81,-2.7,75,4.92,11.1,1021.15,355.5
2019-10-30 18:20,51.64619,-96.747,17.7,21.1,285,992.64,-2.5,74,4.94,11.1,1020.97,355.5
2019-10-30 18:30,51.673495,-96.7700466666667,18.9,23.5,288,992.23,-2.3,72,4.95,11.1,1020.54,355.5
2019-10-30 18:40,51.7002633333333,-96.7944266666667,19.9,23.4,290,992.08,-2.2,72,4.94,11.1,1020.37,355.5
2019-10-30 18:50,51.7279983333333,-96.8166033333333,18.9,23.0,295,992.20,-2.1,71,5.02,11.1,1020.49,355.5
2019-10-30 19:00,51.75437,-96.8430266666667,19.9,23.6,293,991.89,-2.0,70,4.99,11.2,1020.15,345.0
2019-10-30 19:10,51.7802983333333,-96.8707583333333,20.7,23.5,288,991.73,-1.9,71,4.95,11.2,1019.98,345.0
2019-10-30 19:20,51.8058883333333,-96.8992133333333,20.6,25.6,286,991.86,-1.8,70,4.96,11.2,1020.11,345.0
2019-10-30 19:30,51.8311,-96.92714,20.9,24.9,281,991.97,-1.8,70,4.81,11.0,1020.21,345.0
2019-10-30 19:40,51.8565733333333,-96.9545866666667,19.7,22.9,284,991.96,-1.9,70,4.51,11.0,1020.20,345.0
2019-10-30 19:50,51.8663216666667,-96.9687166666667,15.8,21.9,277,992.06,-1.6,67,4.09,4.7,1020.27,345.0
2019-10-30 20:00,51.8668516666667,-96.9681966666667,12.6,16.8,273,992.25,-1.7,69,4.07,0.2,1020.46,334.5
2019-10-30 20:10,51.8665116666667,-96.967955,13.2,16.2,271,992.22,-1.8,66,4.04,0.1,1020.44,334.5
2019-10-30 20:20,51.8644183333333,-96.9654583333333,12.8,16.4,267,992.27,-1.7,67,4.01,0.9,1020.47,334.5
2019-10-30 20:30,51.843505,-96.94142,12.3,16.1,239,992.31,-1.6,69,3.94,9.2,1020.51,334.5
2019-10-30 20:40,51.818785,-96.9135416666667,15.6,19.5,225,992.26,-1.7,69,4.25,10.8,1020.45,334.5
2019-10-30 20:50,51.7943666666667,-96.8857683333333,16.5,20.5,215,992.24,-1.7,69,4.60,10.7,1020.43,334.5
2019-10-30 21:00,51.770765,-96.8577533333333,14.2,19.2,215,992.42,-1.8,68,4.83,10.5,1020.60,332.6
2019-10-30 21:10,51.744635,-96.8354833333333,16.6,21.2,223,992.35,-1.7,67,4.82,10.6,1020.52,332.6
2019-10-30 21:20,51.7185316666667,-96.8125266666667,14.9,19.2,217,992.46,-1.8,65,4.89,10.7,1020.64,332.6
2019-10-30 21:30,51.6919433333333,-96.79004,14.5,18.3,221,992.55,-1.8,66,4.97,10.8,1020.74,332.6
2019-10-30 21:40,51.664295,-96.77402,15.0,20.1,220,992.52,-1.9,66,4.90,10.6,1020.70,332.6
2019-10-30 21:50,51.6372366666667,-96.7883033333333,18.4,22.0,231,992.32,-2.0,64,4.80,10.3,1020.50,332.6
2019-10-30 22:00,51.63936,-96.8026433333333,10.5,20.4,261,992.60,-2.2,64,4.56,3.3,1020.81,167.7
2019-10-30 22:10,51.63935,-96.8027433333333,8.6,11.9,238,992.80,-2.3,63,4.44,0.0,1021.01,167.7
2019-10-30 22:20,51.6393466666667,-96.8027483333333,8.1,11.5,238,992.82,-2.5,66,4.49,0.0,1021.03,167.7
2019-10-30 22:30,51.6393483333333,-96.802745,7.3,9.9,232,992.86,-2.6,67,4.48,0.0,1021.10,167.7
2019-10-30 22:40,51.6393483333333,-96.8027483333333,7.4,10.8,239,992.90,-2.8,68,4.47,0.0,1021.14,167.7
2019-10-30 22:50,51.6393483333333,-96.80275,8.8,11.4,238,992.90,-2.8,72,4.49,0.0,1021.15,167.7
2019-10-30 23:00,51.6393483333333,-96.8027516666667,8.0,11.9,240,992.90,-3.1,77,4.51,0.0,1021.16,155.7
2019-10-30 23:10,51.63935,-96.8027533333333,6.7,9.4,258,992.89,-3.2,77,4.50,0.0,1021.15,155.7
2019-10-30 23:20,51.6393483333333,-96.8027516666667,6.8,9.4,257,992.86,-3.2,78,4.49,0.0,1021.13,155.7
2019-10-30 23:30,51.6393483333333,-96.8027533333333,7.2,10.2,239,992.81,-3.3,80,4.48,0.0,1021.08,155.7
2019-10-30 23:40,51.6393483333333,-96.8027533333333,8.1,11.3,240,992.78,-3.6,81,4.48,0.0,1021.08,155.7
